Tracking 28790 objects as of 19-Apr-2024
HD Live streaming from Space Station
objects crossing your sky now

STARLINK-1119

Track STARLINK-1119 now!
10-day predictions
STARLINK-1119 is classified as:


NORAD ID: 44928
Int'l Code: 2020-001Q
Perigee: 315.2 km
Apogee: 327.8 km
Inclination: 53.0 °
Period: 90.8 minutes
Semi major axis: 6692 km
RCS: Unknown
Launch date: January 7, 2020
Source: United States (US)
Launch site: AIR FORCE EASTERN TEST RANGE (AFETR)
Your satellite tracking list
Your tracking list is empty




NASA's NSSDC Master Catalog

Two Line Element Set (TLE):
1 44928U 20001Q   24110.25001157  .00237080  00000-0  93071-3 0  9992
2 44928  53.0419 136.3377 0009382  28.9537 317.8871 15.85704728236842
Source of the keplerian elements: AFSPC